This demonstration page uses our WeatherBlox Daily Observations layout. Learn more.

Left ArrowRight Arrow

39.01783, -85.05884

Hourly Observations for May 4, 2015

Temp ( °F °C ) Dew Point ( °F °C ) Humidity (%) Winds ( mph kmh ) Pressure ( in mb ) Visibility ( mi km ) Precip ( " mm )
12:52 am 00:52 Clear 61 16.1 46 7.8 58 58 S 6 9 30.07 1018 10 16 0.00 0.00
1:52 am 01:52 Clear 58 14.4 49 9.4 72 72 S 6 9 30.08 1019 10 16 0.00 0.00
2:52 am 02:52 Mostly Cloudy 59 15 48 8.9 67 67 S 6 9 30.09 1019 10 16 0.00 0.00
3:52 am 03:52 Mostly Clear 58 14.4 48 8.9 70 70 S 6 9 30.09 1019 10 16 0.00 0.00
4:52 am 04:52 Mostly Clear 58 14.4 48 8.9 70 70 S 7 11 30.09 1019 10 16 0.00 0.00
5:52 am 05:52 Mostly Clear 58 14.4 48 8.9 70 70 S 7 11 30.10 1019 10 16 0.00 0.00
7:52 am 07:52 Mostly Cloudy 60 15.6 50 10 70 70 S 8 13 30.14 1021 10 16 0.00 0.00
8:52 am 08:52 Partly Cloudy 65 18.3 51 10.6 61 61 SSW 8 13 30.15 1021 10 16 0.00 0.00
9:52 am 09:52 Mostly Cloudy 69 20.6 52 11.1 55 55 SSW 8 13 30.17 1022 10 16 0.00 0.00
10:52 am 10:52 Partly Cloudy 73 22.8 53 11.7 50 50 SW 9 15 30.17 1022 10 16 0.00 0.00
11:52 am 11:52 Mostly Cloudy 77 25 54 12.2 45 45 SW 9 15 30.18 1022 10 16 0.00 0.00
12:52 pm 12:52 Mostly Cloudy 78 25.6 54 12.2 43 43 WSW 10 17 30.18 1022 10 16 0.00 0.00
1:52 pm 13:52 Mostly Cloudy 79 26.1 54 12.2 42 42 SSW 14 22 30.16 1021 10 16 0.00 0.00
2:52 pm 14:52 Mostly Cloudy 77 25 55 12.8 47 47 WSW 8 13 30.16 1021 10 16 0.00 0.00
3:52 pm 15:52 Cloudy 78 25.6 55 12.8 45 45 SSW 5 7 30.14 1021 10 16 0.00 0.00
4:52 pm 16:52 Cloudy 76 24.4 58 14.4 54 54 W 6 9 30.14 1021 10 16 0.00 0.00
5:52 pm 17:52 Mostly Cloudy 80 26.7 57 13.9 45 45 VRB 6 9 30.14 1021 10 16 0.00 0.00
6:52 pm 18:52 Mostly Cloudy 77 25 57 13.9 50 50 SW 6 9 30.14 1021 10 16 0.00 0.00
7:52 pm 19:52 Mostly Cloudy 77 25 56 13.3 48 48 Calm 30.15 1021 10 16 0.00 0.00
8:52 pm 20:52 Mostly Cloudy 73 22.8 57 13.9 57 57 Calm 30.15 1021 10 16 0.00 0.00
9:52 pm 21:52 Partly Cloudy 68 20 57 13.9 68 68 Calm 30.16 1021 10 16 0.00 0.00
10:52 pm 22:52 Partly Cloudy 67 19.4 57 13.9 71 71 Calm 30.17 1022 10 16 0.00 0.00
11:52 pm 23:52 Cloudy 66 18.9 57 13.9 73 73 S 6 9 30.18 1022 10 16 0.00 0.00

Powered by AerisWeather